Dewpoint
13 12 15 21 25 31 38 45 50 51 56 57 56 55 56 56 56 56 57 58 57 57 58 61 62 64 65 65 66 66 65 68 68 68 68 68 64 67 67 69 69 69 70 69
11 9 11 19 22 24 27 48 51 53 55 56 56 55 56 55 55 55 57 58 57 60 60 60 61 63 63 65 66 66 66 68 68 67 67 65 64 67 69 70 65 64 69 70
10 8 12 13 15 16 28 48 50 47 47 55 54 52 55 56 57 56 57 58 58 59 60 61 61 62 65 65 66 66 66 69 67 67 67 67 69 69 69 67 66 62 66 71
12 12 9 11 12 21 40 47 44 45 44 41 51 42 54 55 54 55 54 57 59 60 62 62 61 62 63 64 66 66 66 68 67 68 67 66 65 65 67 67 68 67 69 70
15 15 13 12 12 27 32 42 42 45 44 37 37 42 44 56 55 56 54 56 58 59 62 62 61 64 63 64 65 66 67 67 67 68 67 66 66 66 67 68 68 67 69 70
18 20 20 20 24 24 27 35 36 38 36 33 38 41 45 52 55 55 56 54 56 58 61 62 62 62 65 65 66 68 67 67 69 69 69 67 67 67 65 67 68 68 69 69
17 16 19 21 21 21 22 24 24 33 34 33 40 40 48 52 53 55 57 55 54 56 59 61 61 61 65 67 68 68 68 67 68 69 69 68 68 68 67 67 67 68 68 68
16 15 17 19 19 20 23 22 22 22 29 32 38 38 46 53 53 56 57 58 56 55 59 59 60 61 64 67 68 68 68 67 67 68 69 69 69 68 69 69 68 68 69 68
19 17 18 18 19 19 18 15 22 22 29 33 41 45 51 49 51 55 58 59 59 58 59 60 61 62 62 66 67 68 67 66 67 68 69 69 70 70 67 68 70 69 69 68
23 21 20 18 22 31 26 19 20 34 32 32 40 43 42 46 51 54 56 57 59 60 60 58 59 61 62 65 66 68 68 65 67 68 68 68 70 70 69 67 69 69 70 70
31 26 26 36 36 34 33 34 39 42 39 35 35 39 50 50 53 54 54 55 58 60 60 57 61 61 64 62 66 69 68 66 67 68 68 69 69 70 70 70 70 70 70 71
34 29 34 35 38 38 36 38 36 33 36 40 40 38 53 54 55 53 54 53 58 60 63 61 61 62 66 66 67 69 68 67 68 68 69 69 69 70 70 71 70 69 67 71
34 28 32 30 31 33 34 35 36 39 41 39 36 38 52 55 54 54 54 55 59 61 63 65 64 64 65 67 68 69 69 69 69 68 68 69 68 69 70 70 70 69 68 68
38 26 27 25 26 34 35 36 37 35 34 39 38 41 45 49 54 54 54 57 62 63 64 65 65 64 65 66 65 66 66 67 67 67 67 67 68 68 70 70 70 70 71 71
24 21 25 25 34 37 33 34 35 36 37 36 41 43 43 48 52 51 56 59 61 63 64 64 63 64 65 66 67 67 67 67 66 66 65 65 67 68 69 70 70 71 71 71
29 24 37 29 34 35 35 38 37 39 42 43 45 43 45 48 49 57 59 60 61 63 63 63 63 64 64 65 66 66 67 67 67 65 65 66 64 65 68 70 71 71 71 71
32 30 28 29 30 33 32 37 37 38 41 38 41 47 51 52 57 57 59 60 60 61 63 63 65 64 64 64 65 65 66 68 66 66 67 67 65 64 67 70 69 70 69 70
26 30 30 26 28 24 27 39 40 42 48 51 51 50 52 56 57 57 59 60 61 61 61 62 63 63 64 65 65 66 66 67 65 65 66 65 65 65 67 69 68 69 69 70
23 32 27 23 27 29 37 38 37 42 44 50 48 54 53 54 56 55 58 60 61 61 61 61 61 61 62 63 63 64 65 65 67 66 66 65 66 67 67 68 67 67 68 68
33 28 25 24 21 23 36 42 47 46 44 52 53 52 54 57 51 53 57 59 60 60 61 61 61 60 60 62 63 62 62 64 64 65 67 68 68 68 68 68 68 68 68 68
31 31 25 29 26 35 41 41 43 31 38 52 51 52 54 53 53 55 58 59 60 60 60 60 59 58 59 60 61 63 64 64 65 66 67 66 67 67 66 65 65 65 65 65
27 31 28 28 30 34 43 41 39 45 53 53 53 52 52 55 56 57 57 58 58 58 59 59 58 58 58 59 61 62 62 63 67 66 66 66 65 65 64 63 63 62 62 62
32 33 34 33 35 40 42 41 48 54 52 54 52 50 51 56 55 57 57 57 57 57 57 59 57 58 58 59 59 60 61 63 65 65 64 64 63 63 63 62 61 60 60 60
38 41 38 38 42 43 45 41 47 53 54 57 54 50 55 55 54 56 57 57 57 57 57 57 58 58 58 58 58 59 61 64 65 63 61 59 57 55 55 56 57 58 59 59
40 40 38 38 39 42 48 44 48 50 50 46 46 47 53 52 53 56 57 57 57 57 57 57 57 58 58 58 58 59 60 62 61 60 58 57 54 51 47 44 47 45 44 49
44 41 37 35 40 40 40 44 47 44 42 42 43 47 49 53 56 57 56 56 56 56 56 58 58 58 56 56 58 59 60 60 59 58 57 56 53 52 48 45 43 44 44 44
Lifted_Index
7 6 4 2 1 1 -1 -2 -3 -2 -2 -3 -3 -2 -1 -0 0 -0 -1 -0 -0 -0 -1 -1 -1 -1 -1 -1 -1 -1 -1 -1 -1 -1 -2 -2 -3 -3 -3 -3 -4 -4 -3 -3
6 5 4 3 2 2 0 -2 -3 -2 -2 -3 -3 -3 -2 -1 -0 -0 -1 -0 -0 -0 -0 -1 -1 -1 -1 -1 -1 -1 -1 -2 -2 -2 -2 -2 -3 -3 -3 -3 -3 -3 -3 -3
5 5 4 4 3 2 0 -2 -3 -2 -2 -3 -3 -3 -3 -2 -1 -0 -0 -1 -0 -0 -0 -1 -1 -1 -1 -1 -1 -1 -1 -2 -2 -2 -2 -2 -3 -3 -3 -3 -3 -3 -3 -4
5 5 4 4 3 1 -0 -2 -2 -2 -2 -2 -2 -2 -2 -3 -2 -1 -1 -1 -1 -1 -1 -1 -1 -1 -1 -1 -1 -1 -1 -2 -2 -2 -2 -2 -3 -3 -3 -3 -3 -3 -3 -4
4 4 4 3 2 1 -1 -2 -2 -2 -2 -1 -1 -1 -2 -2 -3 -2 -1 -1 -1 -1 -1 -1 -1 -1 -1 -1 -2 -1 -1 -2 -2 -2 -2 -2 -3 -3 -3 -3 -3 -3 -3 -4
3 3 3 2 2 1 0 -1 -2 -2 -2 -1 -1 -1 -1 -2 -3 -2 -1 -1 -0 -1 -1 -1 -1 -1 -1 -2 -2 -2 -2 -2 -2 -2 -2 -2 -2 -3 -3 -3 -3 -3 -3 -3
2 2 2 2 2 2 1 -0 -1 -1 -1 -1 -1 -1 -2 -2 -2 -2 -2 -1 0 0 -1 -1 -1 -1 -2 -2 -3 -2 -2 -2 -2 -2 -3 -3 -3 -3 -3 -3 -3 -2 -2 -2
2 2 2 2 2 2 2 1 0 -0 -0 -0 -1 -2 -2 -2 -2 -2 -2 -1 -1 0 0 0 -0 -1 -2 -3 -3 -3 -2 -2 -2 -2 -3 -3 -3 -3 -3 -3 -3 -3 -3 -2
1 2 2 2 2 2 2 1 1 0 0 0 -1 -1 -2 -2 -1 -1 -2 -2 -1 -1 0 0 -0 -1 -2 -3 -3 -3 -2 -2 -2 -2 -3 -3 -3 -3 -3 -3 -3 -3 -3 -3
1 1 1 2 2 2 2 1 1 0 -0 -0 -0 -1 -1 -1 -1 -1 -1 -2 -2 -1 -1 0 -0 -1 -2 -3 -3 -3 -2 -1 -1 -2 -2 -3 -3 -3 -3 -3 -3 -3 -3 -3
1 1 1 1 1 1 1 1 0 0 -0 0 0 -0 -1 -1 -1 -1 -1 -1 -2 -2 -1 -1 -0 -1 -2 -2 -3 -3 -3 -2 -2 -2 -2 -3 -3 -4 -3 -3 -3 -3 -3 -3
1 1 0 0 0 1 0 0 0 0 0 0 0 0 -0 -1 -0 0 0 -0 -1 -1 -2 -1 -1 -1 -2 -2 -3 -4 -4 -3 -2 -2 -2 -3 -3 -4 -4 -3 -3 -3 -3 -3
1 1 0 0 0 1 0 0 0 0 0 0 0 0 -0 -1 -0 1 1 1 0 -1 -1 -2 -2 -1 -2 -2 -3 -4 -4 -3 -2 -2 -2 -3 -3 -3 -4 -3 -3 -3 -3 -3
2 2 1 1 1 1 0 0 1 1 0 0 -0 -0 -0 -0 -0 0 0 0 -0 -1 -1 -2 -2 -1 -1 -2 -3 -3 -3 -3 -2 -2 -2 -2 -3 -3 -3 -3 -3 -3 -3 -3
2 3 2 2 1 0 0 0 1 1 0 0 -0 -0 -0 -0 -1 -1 -1 -1 -1 -2 -2 -2 -2 -2 -1 -1 -2 -2 -2 -2 -2 -2 -2 -2 -2 -3 -3 -3 -3 -3 -3 -3
2 2 2 1 1 0 0 0 0 0 0 -0 -0 -1 -0 -1 -2 -3 -2 -2 -2 -3 -3 -3 -3 -2 -2 -1 -1 -1 -1 -1 -1 -1 -2 -2 -2 -2 -3 -3 -3 -3 -3 -3
2 2 1 1 1 1 0 -0 -0 -0 -0 -0 -1 -1 -1 -2 -3 -3 -3 -3 -3 -3 -3 -3 -3 -3 -3 -2 -1 -1 -0 -0 0 -0 -1 -1 -1 -2 -2 -3 -3 -3 -3 -3
2 2 1 1 1 1 0 -1 -1 -1 -0 -0 -1 -1 -2 -3 -3 -3 -3 -3 -3 -2 -3 -3 -2 -3 -3 -2 -1 -1 -1 -0 0 0 0 0 0 -0 -1 -2 -3 -3 -2 -3
2 2 1 2 2 1 0 -0 -1 -1 -1 -1 -1 -1 -2 -3 -3 -3 -2 -2 -2 -2 -2 -2 -2 -2 -2 -2 -1 -1 -1 -1 -0 -0 0 1 1 0 -1 -2 -2 -2 -2 -3
1 1 1 2 2 1 0 -1 -1 -1 -1 -1 -1 -2 -3 -3 -3 -2 -2 -2 -2 -2 -1 -1 -1 -1 -1 -1 -1 -1 -1 -1 -1 -1 -0 -0 -0 -0 -0 -1 -2 -2 -2 -2
0 1 1 1 1 0 -0 -1 -1 -1 -1 -1 -1 -2 -2 -3 -3 -3 -3 -2 -2 -1 -0 0 1 1 0 -0 -1 -1 -1 -1 -2 -1 -1 -1 -1 -1 -1 -1 -1 -1 -2 -2
0 0 0 0 -0 -1 -1 -1 -1 -1 -2 -2 -2 -2 -2 -3 -4 -3 -3 -2 -1 -0 1 2 2 2 1 -0 -1 -1 -1 -2 -2 -2 -1 -1 -1 -1 -1 -0 0 0 -0 -0
-0 -0 -0 -0 -1 -1 -1 -1 -2 -2 -2 -2 -2 -2 -2 -3 -4 -3 -3 -2 -1 0 1 2 2 2 1 -0 -1 -1 -1 -2 -2 -2 -2 -1 -0 -0 0 1 1 1 1 1
-1 -1 -1 -0 -1 -1 -1 -1 -2 -3 -3 -3 -2 -2 -2 -3 -3 -3 -3 -2 -1 -0 1 2 2 1 1 0 -1 -1 -1 -1 -2 -2 -2 -1 0 1 1 2 2 2 2 2
-1 -1 -1 -1 -1 -1 -1 -1 -2 -2 -2 -2 -2 -2 -3 -3 -3 -3 -3 -2 -1 -0 1 1 1 1 0 0 -0 -1 -1 -1 -1 -2 -1 -1 -0 0 1 1 2 2 2 2
-1 -1 -1 -0 -0 -1 -1 -1 -1 -1 -1 -1 -1 -1 -2 -3 -3 -3 -3 -2 -1 -0 0 1 1 1 0 0 -0 -1 -1 -1 -1 -1 -1 -1 -1 -0 0 0 1 1 1 2